Weather reports worldwide

Advertisment
Beirut, Lebanon (40100): temperature & dewpoint: 20.05.2019 01:00:00 - 26.05.2019 01:00:00 (EEST)Beirut, Lebanon (40100): wind speed: 20.05.2019 01:00:00 - 26.05.2019 01:00:00 (EEST)Beirut, Lebanon (40100): wind direction: 20.05.2019 01:00:00 - 26.05.2019 01:00:00 (EEST)Beirut, Lebanon (40100): reduced air pressure: 20.05.2019 01:00:00 - 26.05.2019 01:00:00 (EEST)Beirut, Lebanon (40100): visibility: 20.05.2019 01:00:00 - 26.05.2019 01:00:00 (EEST)
Date & Time tt [°C] td [°C] ff [km/h] ff [kn] dd ppp [hPa] vv [km]
26.05.2019 01:00:00 - - - - - - -
26.05.2019 00:00:00 21,4 17,3 11 6 - 1016,8 10
25.05.2019 23:00:00 - - - - - - -
25.05.2019 22:00:00 - - - - - - -
25.05.2019 21:00:00 22,0 16,8 8 4 W 1016,3 20
25.05.2019 20:00:00 - - - - - - -
25.05.2019 19:00:00 - - - - - - -
25.05.2019 18:00:00 23,7 17,8 11 6 W 1016,2 10
25.05.2019 17:00:00 - - - - - - -
25.05.2019 16:00:00 - - - - - - -
25.05.2019 15:00:00 25,1 17,2 13 7 - 1016,9 20
25.05.2019 14:00:00 - - - - - - -
25.05.2019 13:00:00 - - - - - - -
25.05.2019 12:00:00 24,7 18,7 15 8 WSW 1017,1 10
25.05.2019 11:00:00 - - - - - - -
25.05.2019 10:00:00 - - - - - - -
25.05.2019 09:00:00 24,0 20,8 21 11 SW 1016,4 10
25.05.2019 08:00:00 - - - - - - -
25.05.2019 07:00:00 - - - - - - -
25.05.2019 06:00:00 22,7 21,0 21 11 SSW 1014,6 8
25.05.2019 05:00:00 - - - - - - -
25.05.2019 04:00:00 - - - - - - -
25.05.2019 03:00:00 24,0 18,3 15 8 S 1013,4 10
25.05.2019 02:00:00 - - - - - - -
25.05.2019 01:00:00 - - - - - - -
25.05.2019 00:00:00 25,4 18,5 2 1 - 1011,7 10
24.05.2019 23:00:00 - - - - - - -
24.05.2019 22:00:00 - - - - - - -
24.05.2019 21:00:00 28,1 16,9 18 10 SW 1009,7 10
24.05.2019 20:00:00 - - - - - - -
24.05.2019 19:00:00 - - - - - - -
24.05.2019 18:00:00 34,8 12,3 9 5 - 1008,0 10
24.05.2019 17:00:00 - - - - - - -
24.05.2019 16:00:00 - - - - - - -
24.05.2019 15:00:00 31,5 14,5 11 6 - 1008,9 10
24.05.2019 14:00:00 - - - - - - -
24.05.2019 13:00:00 - - - - - - -
24.05.2019 12:00:00 31,0 14,9 11 6 W 1009,1 10
24.05.2019 11:00:00 - - - - - - -
24.05.2019 10:00:00 - - - - - - -
24.05.2019 09:00:00 37,8 11,5 5 3 ESE 1007,8 10
24.05.2019 08:00:00 - - - - - - -
24.05.2019 07:00:00 - - - - - - -
24.05.2019 06:00:00 27,2 14,5 4 2 - 1008,4 10
24.05.2019 05:00:00 - - - - - - -
24.05.2019 04:00:00 - - - - - - -
24.05.2019 03:00:00 28,7 8,7 2 1 - 1008,4 10
24.05.2019 02:00:00 - - - - - - -
24.05.2019 01:00:00 - - - - - - -
24.05.2019 00:00:00 32,5 7,0 8 4 E 1009,6 10
23.05.2019 23:00:00 - - - - - - -
23.05.2019 22:00:00 - - - - - - -
23.05.2019 21:00:00 33,6 10,0 8 4 E 1010,1 10
23.05.2019 20:00:00 - - - - - - -
23.05.2019 19:00:00 - - - - - - -
23.05.2019 18:00:00 34,9 11,1 9 5 NE 1011,1 10
23.05.2019 17:00:00 - - - - - - -
23.05.2019 16:00:00 - - - - - - -
23.05.2019 15:00:00 33,1 16,4 8 4 - 1012,3 10
23.05.2019 14:00:00 - - - - - - -
23.05.2019 13:00:00 - - - - - - -
23.05.2019 12:00:00 33,4 10,5 13 7 NW 1013,0 10
23.05.2019 11:00:00 - - - - - - -
23.05.2019 10:00:00 - - - - - - -
23.05.2019 09:00:00 27,9 10,9 8 4 W 1013,2 10
23.05.2019 08:00:00 - - - - - - -
23.05.2019 07:00:00 - - - - - - -
23.05.2019 06:00:00 25,0 9,9 4 2 SE 1013,5 10
23.05.2019 05:00:00 - - - - - - -
23.05.2019 04:00:00 - - - - - - -
23.05.2019 03:00:00 25,5 10,0 4 2 ENE 1014,5 10
23.05.2019 02:00:00 - - - - - - -
23.05.2019 01:00:00 - - - - - - -
23.05.2019 00:00:00 25,4 10,7 4 2 S 1016,2 10
22.05.2019 23:00:00 - - - - - - -
22.05.2019 22:00:00 - - - - - - -
22.05.2019 21:00:00 29,0 14,3 5 3 E 1016,3 10
22.05.2019 20:00:00 - - - - - - -
22.05.2019 19:00:00 - - - - - - -
22.05.2019 18:00:00 28,8 17,6 15 8 NNW 1016,3 10
22.05.2019 17:00:00 - - - - - - -
22.05.2019 16:00:00 - - - - - - -
22.05.2019 15:00:00 27,6 19,3 11 6 - 1016,6 10
22.05.2019 14:00:00 - - - - - - -
22.05.2019 13:00:00 - - - - - - -
22.05.2019 12:00:00 28,9 15,7 16 9 NW 1017,0 10
22.05.2019 11:00:00 - - - - - - -
22.05.2019 10:00:00 - - - - - - -
22.05.2019 09:00:00 25,4 15,9 5 3 - 1016,4 8
22.05.2019 08:00:00 - - - - - - -
22.05.2019 07:00:00 - - - - - - -
22.05.2019 06:00:00 21,3 12,6 5 3 S 1016,3 10
22.05.2019 05:00:00 - - - - - - -
22.05.2019 04:00:00 - - - - - - -
22.05.2019 03:00:00 22,5 12,9 4 2 - 1017,0 10
22.05.2019 02:00:00 - - - - - - -
22.05.2019 01:00:00 - - - - - - -
22.05.2019 00:00:00 22,7 16,1 4 2 ENE 1017,4 10
21.05.2019 23:00:00 - - - - - - -
21.05.2019 22:00:00 - - - - - - -
21.05.2019 21:00:00 22,8 18,2 4 2 WSW 1017,2 10
21.05.2019 20:00:00 - - - - - - -
21.05.2019 19:00:00 - - - - - - -
21.05.2019 18:00:00 24,7 16,3 8 4 WNW 1017,2 20
21.05.2019 17:00:00 - - - - - - -
21.05.2019 16:00:00 - - - - - - -
21.05.2019 15:00:00 24,2 20,0 11 6 WSW 1017,9 10
21.05.2019 14:00:00 - - - - - - -
21.05.2019 13:00:00 - - - - - - -
21.05.2019 12:00:00 24,1 21,3 15 8 SW 1018,3 10
21.05.2019 11:00:00 - - - - - - -
21.05.2019 10:00:00 - - - - - - -
21.05.2019 09:00:00 - - - - - - -
21.05.2019 08:00:00 - - - - - - -
21.05.2019 07:00:00 - - - - - - -
21.05.2019 06:00:00 - - - - - - -
21.05.2019 05:00:00 - - - - - - -
21.05.2019 04:00:00 - - - - - - -
21.05.2019 03:00:00 22,0 15,5 8 4 W 1015,9 10
21.05.2019 02:00:00 - - - - - - -
21.05.2019 01:00:00 - - - - - - -
21.05.2019 00:00:00 23,1 16,0 9 5 NE 1017,1 20
20.05.2019 23:00:00 - - - - - - -
20.05.2019 22:00:00 - - - - - - -
20.05.2019 21:00:00 23,4 17,7 13 7 NNE 1017,2 20
20.05.2019 20:00:00 - - - - - - -
20.05.2019 19:00:00 - - - - - - -
20.05.2019 18:00:00 - - - - - - -
20.05.2019 17:00:00 - - - - - - -
20.05.2019 16:00:00 - - - - - - -
20.05.2019 15:00:00 - - - - - - -
20.05.2019 14:00:00 - - - - - - -
20.05.2019 13:00:00 - - - - - - -
20.05.2019 12:00:00 - - - - - - -
20.05.2019 11:00:00 - - - - - - -
20.05.2019 10:00:00 - - - - - - -
20.05.2019 09:00:00 - - - - - - -
20.05.2019 08:00:00 - - - - - - -
20.05.2019 07:00:00 - - - - - - -
20.05.2019 06:00:00 - - - - - - -
20.05.2019 05:00:00 - - - - - - -
20.05.2019 04:00:00 - - - - - - -
20.05.2019 03:00:00 - - - - - - -
20.05.2019 02:00:00 - - - - - - -
20.05.2019 01:00:00 - - - - - - -

tt = temperature
td = dewpoint
ff = wind speed
dd = wind direction
ppp = reduced air pressure
vv = visibility

Next stations